Погода в Октябрьском

Россия / Ставропольский край     45°37′27″N   42°49′50″E
темп.,
°C
ветер,
м/с
пор.,
м/с
влажн.,
%
обл.,
%
осадки,
мм/ч
давл.,
гПа
погр.,
м
10 мая, пн
пн1000:00+7з8148999 0.0 1020611
03:00+6з6128918 0.0 1021394
06:00+5з712895 0.0 1020444
09:00+10з812645 0.3 10201451
12:00+12з10125581 0.5 10192011
15:00+11зсз101363100 1.6 10181825
18:00+9з8137798 0.5 10181294
21:00+7з81378100 0.5 1018863
11 мая, вт
вт1100:00+7юз61482100 0.0 1017662
03:00+7юз51270100 0.0 1017853
06:00+8юз71263100 0.0 10171016
09:00+10юз4856100 0.1 10181011
12:00+13юв91156100 0.0 10171334
15:00+13юв6859100 0.1 10171420
18:00+12вюв3670100 0.2 1018276
21:00+10всв2377100 0.3 101862
12 мая, ср
ср1200:00+9всв2377100 0.1 101846
03:00+7ююв228190 0.1 101719
06:00+8юв248017 0.0 1018120
09:00+14вюв45633 0.0 1017941
12:00+18вюв455326 0.0 10171585
15:00+20в555139 0.0 10161674
18:00+18вюв466485 0.0 1016230
21:00+14в3373100 0.0 101620
13 мая, чт
чт1300:00+12вюв33813 0.0 101533
03:00+11юв33830 0.0 101541
06:00+12вюв38845 0.0 1016186
09:00+19вюв68654 0.0 1015783
12:00+23вюв67547 0.0 10141146
15:00+25вюв56495 0.0 10141360
18:00+23в47649 0.0 1014201
21:00+18вюв4777100 0.0 101498
14 мая, пт
пт1400:00+16юв497486 0.0 1014132
03:00+14юв46790 0.0 101487
06:00+15вюв38840 0.0 1014174
09:00+22юв68625 0.0 1014521
12:00+26юв67465 0.0 1013839
15:00+28юв564230 0.0 10131083
18:00+25юв376077 0.0 1012163
21:00+19юв336958 0.0 101329